Time,TemperatureF,DewpointF,PressureIn,WindDirection,WindDirectionDegrees,WindSpeedMPH,WindSpeedGustMPH,Humidity,HourlyPrecipIn,Conditions,Clouds,dailyrainin,SoftwareType,DateUTC
2013-01-08 00:00:00,48.3,47.5,30.26,SE,128,0.0,0.0,97,0.01,RA,SCT,0.00,WeatherDisplay:10.37,2013-01-08 08:00:00,
2013-01-08 00:15:00,48.3,47.5,30.26,SE,128,0.0,2.0,97,0.00,CLR,SCT,0.00,WeatherDisplay:10.37,2013-01-08 08:15:00,
2013-01-08 00:30:00,48.3,47.5,30.25,SE,128,0.0,1.0,97,0.00,CLR,SCT,0.00,WeatherDisplay:10.37,2013-01-08 08:30:00,
2013-01-08 00:45:00,48.3,47.5,30.25,SE,128,0.0,1.0,97,0.01,RA,SCT,0.01,WeatherDisplay:10.37,2013-01-08 08:45:00,
2013-01-08 01:00:00,48.3,47.5,30.25,ESE,113,0.0,2.0,97,0.00,CLR,SCT,0.01,WeatherDisplay:10.37,2013-01-08 09:00:00,
2013-01-08 01:15:00,48.3,47.5,30.25,ESE,113,0.0,1.0,97,0.01,CLR,SCT,0.02,WeatherDisplay:10.37,2013-01-08 09:15:00,
2013-01-08 01:30:00,48.4,47.6,30.24,ESE,113,0.0,1.0,97,0.01,,SCT,0.03,WeatherDisplay:10.37,2013-01-08 09:30:00,
2013-01-08 01:45:00,48.4,47.6,30.23,ESE,113,0.0,1.0,97,0.01,CLR,SCT,0.04,WeatherDisplay:10.37,2013-01-08 09:45:00,
2013-01-08 02:00:00,48.4,47.6,30.23,ESE,113,0.0,2.0,97,0.01,RA,SCT,0.05,WeatherDisplay:10.37,2013-01-08 10:00:00,
2013-01-08 02:15:00,48.4,47.6,30.23,ESE,114,0.0,1.0,97,0.00,CLR,SCT,0.05,WeatherDisplay:10.37,2013-01-08 10:15:00,
2013-01-08 02:30:00,48.4,47.6,30.23,ESE,114,0.0,1.0,97,0.01,CLR,SCT,0.06,WeatherDisplay:10.37,2013-01-08 10:30:00,
2013-01-08 02:45:00,48.4,47.6,30.23,ESE,114,0.0,1.0,97,0.02,RA,SCT,0.08,WeatherDisplay:10.37,2013-01-08 10:45:00,
2013-01-08 03:00:00,48.5,47.7,30.22,ESE,118,1.0,5.0,97,0.00,CLR,SCT,0.08,WeatherDisplay:10.37,2013-01-08 11:00:00,
2013-01-08 03:15:00,48.5,47.7,30.22,SE,146,1.0,10.0,97,0.01,,SCT,0.09,WeatherDisplay:10.37,2013-01-08 11:15:00,
2013-01-08 03:30:00,48.6,47.8,30.21,ESE,108,0.0,3.0,97,0.01,CLR,SCT,0.10,WeatherDisplay:10.37,2013-01-08 11:30:00,
2013-01-08 03:45:00,48.8,48.0,30.20,SE,136,1.0,6.0,97,0.00,CLR,SCT,0.10,WeatherDisplay:10.37,2013-01-08 11:45:00,
2013-01-08 04:00:00,49.1,48.3,30.20,SW,224,0.0,7.0,97,0.01,CLR,SCT,0.11,WeatherDisplay:10.37,2013-01-08 12:00:00,
2013-01-08 04:15:00,49.3,48.5,30.20,SW,220,0.0,5.0,97,0.02,RA,SCT,0.13,WeatherDisplay:10.37,2013-01-08 12:15:00,
2013-01-08 04:30:00,49.5,48.7,30.19,SW,232,0.0,5.0,97,0.01,RA,SCT,0.14,WeatherDisplay:10.37,2013-01-08 12:30:00,
2013-01-08 04:45:00,49.7,48.9,30.19,SW,230,5.0,10.0,97,0.03,RA,SCT,0.17,WeatherDisplay:10.37,2013-01-08 12:45:00,
2013-01-08 05:00:00,49.8,48.9,30.19,West,263,5.0,12.0,97,0.01,RA,SCT,0.18,WeatherDisplay:10.37,2013-01-08 13:00:00,
2013-01-08 05:15:00,49.8,49.0,30.18,WSW,256,1.0,6.0,97,0.01,CLR,SCT,0.19,WeatherDisplay:10.37,2013-01-08 13:15:00,
2013-01-08 05:30:00,49.9,49.1,30.18,West,270,0.0,6.0,97,0.01,RA,SCT,0.20,WeatherDisplay:10.37,2013-01-08 13:30:00,
2013-01-08 05:45:00,50.0,49.2,30.18,SW,222,3.0,7.0,97,0.00,CLR,SCT,0.20,WeatherDisplay:10.37,2013-01-08 13:45:00,
2013-01-08 06:00:00,50.1,49.3,30.18,SSW,209,3.0,7.0,97,0.00,CLR,SCT,0.20,WeatherDisplay:10.37,2013-01-08 14:00:00,
2013-01-08 06:15:00,50.2,49.4,30.18,NW,309,0.0,6.0,97,0.00,CLR,SCT,0.20,WeatherDisplay:10.37,2013-01-08 14:15:00,
2013-01-08 06:30:00,50.3,49.5,30.17,NNE,23,1.0,7.0,97,0.00,CLR,SCT,0.20,WeatherDisplay:10.37,2013-01-08 14:30:00,
2013-01-08 06:45:00,50.4,49.6,30.17,ENE,64,0.0,9.0,97,0.00,CLR,SCT,0.20,WeatherDisplay:10.37,2013-01-08 14:45:00,
2013-01-08 07:00:00,50.5,49.7,30.18,ESE,107,3.0,16.0,97,0.01,RA,SCT,0.21,WeatherDisplay:10.37,2013-01-08 15:00:00,
2013-01-08 07:15:00,50.6,49.8,30.18,WNW,286,0.0,12.0,97,0.00,CLR,SCT,0.21,WeatherDisplay:10.37,2013-01-08 15:15:00,
2013-01-08 07:30:00,50.6,49.7,30.18,ENE,58,0.0,5.0,97,0.00,CLR,SCT,0.21,WeatherDisplay:10.37,2013-01-08 15:30:00,
2013-01-08 07:45:00,50.6,49.8,30.19,NE,35,1.0,12.0,97,0.00,CLR,SCT,0.21,WeatherDisplay:10.37,2013-01-08 15:45:00,
2013-01-08 08:00:00,50.7,49.9,30.19,SSW,211,1.0,9.0,97,0.01,RA,SCT,0.22,WeatherDisplay:10.37,2013-01-08 16:00:00,
2013-01-08 08:15:00,50.8,50.0,30.19,ENE,57,0.0,12.0,97,0.01,RA,SCT,0.23,WeatherDisplay:10.37,2013-01-08 16:15:00,
2013-01-08 08:30:00,50.7,49.9,30.19,South,190,0.0,12.0,97,0.00,CLR,SCT,0.23,WeatherDisplay:10.37,2013-01-08 16:30:00,
2013-01-08 08:45:00,50.7,49.9,30.20,WNW,289,2.0,7.0,97,0.00,CLR,SCT,0.23,WeatherDisplay:10.37,2013-01-08 16:45:00,
2013-01-08 09:00:00,50.7,49.9,30.20,North,355,0.0,5.0,97,0.00,CLR,SCT,0.23,WeatherDisplay:10.37,2013-01-08 17:00:00,
2013-01-08 09:15:00,50.8,50.0,30.19,East,81,1.0,8.0,97,0.00,CLR,SCT,0.23,WeatherDisplay:10.37,2013-01-08 17:15:00,
2013-01-08 09:30:00,50.9,50.1,30.19,ENE,68,0.0,7.0,97,0.01,RA,SCT,0.24,WeatherDisplay:10.37,2013-01-08 17:30:00,
2013-01-08 09:45:00,51.0,50.2,30.19,ENE,59,0.0,6.0,97,0.00,CLR,SCT,0.24,WeatherDisplay:10.37,2013-01-08 17:45:00,
2013-01-08 10:00:00,51.1,50.3,30.19,East,95,0.0,9.0,97,0.00,CLR,SCT,0.24,WeatherDisplay:10.37,2013-01-08 18:00:00,
2013-01-08 10:15:00,51.2,50.4,30.19,NNW,341,1.0,8.0,97,0.00,CLR,SCT,0.24,WeatherDisplay:10.37,2013-01-08 18:15:00,
2013-01-08 10:30:00,51.3,50.5,30.19,NE,48,1.0,15.0,97,0.01,CLR,SCT,0.25,WeatherDisplay:10.37,2013-01-08 18:30:00,
2013-01-08 10:45:00,51.3,50.5,30.18,SE,138,3.0,16.0,97,0.00,CLR,SCT,0.25,WeatherDisplay:10.37,2013-01-08 18:45:00,
2013-01-08 11:00:00,51.4,50.6,30.18,SSE,157,2.0,15.0,97,0.00,CLR,SCT,0.25,WeatherDisplay:10.37,2013-01-08 19:00:00,
2013-01-08 11:15:00,51.5,50.7,30.18,ENE,78,1.0,5.0,97,0.00,CLR,SCT,0.25,WeatherDisplay:10.37,2013-01-08 19:15:00,
2013-01-08 11:30:00,51.6,50.8,30.17,ENE,70,1.0,8.0,97,0.00,CLR,SCT,0.25,WeatherDisplay:10.37,2013-01-08 19:30:00,
2013-01-08 11:45:00,51.6,50.5,30.17,SW,223,5.0,12.0,96,0.02,RA,SCT,0.27,WeatherDisplay:10.37,2013-01-08 19:45:00,
2013-01-08 12:00:00,51.5,50.7,30.17,East,93,6.0,17.0,97,0.01,RA,SCT,0.28,WeatherDisplay:10.37,2013-01-08 20:00:00,
2013-01-08 12:15:00,51.6,50.5,30.16,SSE,151,2.0,9.0,96,0.00,CLR,SCT,0.28,WeatherDisplay:10.37,2013-01-08 20:15:00,
2013-01-08 12:30:00,51.6,50.5,30.16,ESE,112,1.0,12.0,96,0.00,CLR,SCT,0.28,WeatherDisplay:10.37,2013-01-08 20:30:00,
2013-01-08 12:45:00,51.7,50.6,30.16,West,268,0.0,13.0,96,0.00,CLR,SCT,0.28,WeatherDisplay:10.37,2013-01-08 20:45:00,
2013-01-08 13:00:00,51.9,50.8,30.15,NNE,30,5.0,17.0,96,0.00,CLR,SCT,0.28,WeatherDisplay:10.37,2013-01-08 21:00:00,
2013-01-08 13:15:00,52.0,50.9,30.16,SW,229,5.0,14.0,96,0.00,CLR,SCT,0.28,WeatherDisplay:10.37,2013-01-08 21:15:00,
2013-01-08 13:30:00,51.9,50.8,30.15,ENE,59,2.0,16.0,96,0.00,CLR,SCT,0.28,WeatherDisplay:10.37,2013-01-08 21:30:00,
2013-01-08 13:45:00,51.9,50.8,30.14,WSW,247,1.0,20.0,96,0.00,CLR,SCT,0.28,WeatherDisplay:10.37,2013-01-08 21:45:00,
2013-01-08 14:00:00,51.8,50.7,30.13,East,86,2.0,13.0,96,0.00,CLR,SCT,0.28,WeatherDisplay:10.37,2013-01-08 22:00:00,
2013-01-08 14:15:00,51.9,50.8,30.13,East,81,1.0,10.0,96,0.00,CLR,SCT,0.28,WeatherDisplay:10.37,2013-01-08 22:15:00,
2013-01-08 14:30:00,51.9,50.8,30.13,SE,130,0.0,12.0,96,0.00,CLR,SCT,0.28,WeatherDisplay:10.37,2013-01-08 22:30:00,
2013-01-08 14:45:00,51.9,50.5,30.13,ESE,106,2.0,17.0,95,0.00,CLR,SCT,0.28,WeatherDisplay:10.37,2013-01-08 22:45:00,
2013-01-08 15:00:00,52.0,50.6,30.13,South,180,1.0,12.0,95,0.00,CLR,SCT,0.28,WeatherDisplay:10.37,2013-01-08 23:00:00,
2013-01-08 15:15:00,51.9,50.5,30.12,West,265,2.0,7.0,95,0.00,CLR,SCT,0.28,WeatherDisplay:10.37,2013-01-08 23:15:00,
2013-01-08 15:30:00,51.7,50.6,30.12,East,89,1.0,6.0,96,0.00,CLR,SCT,0.28,WeatherDisplay:10.37,2013-01-08 23:30:00,
2013-01-08 15:45:00,51.7,50.3,30.11,ESE,116,1.0,10.0,95,0.00,CLR,SCT,0.28,WeatherDisplay:10.37,2013-01-08 23:45:00,
2013-01-08 16:00:00,51.9,50.2,30.11,WNW,298,1.0,10.0,94,0.00,CLR,SCT,0.28,WeatherDisplay:10.37,2013-01-09 00:00:00,
2013-01-08 16:15:00,52.0,50.0,30.10,NW,324,1.0,7.0,93,0.00,CLR,SCT,0.28,WeatherDisplay:10.37,2013-01-09 00:15:00,
2013-01-08 16:30:00,52.1,49.8,30.10,ESE,122,0.0,13.0,92,0.00,CLR,SCT,0.28,WeatherDisplay:10.37,2013-01-09 00:30:00,
2013-01-08 16:45:00,52.1,49.8,30.09,SSE,165,0.0,12.0,92,0.00,CLR,SCT,0.28,WeatherDisplay:10.37,2013-01-09 00:45:00,
2013-01-08 17:00:00,52.1,49.8,30.08,East,94,0.0,9.0,92,0.00,CLR,SCT,0.28,WeatherDisplay:10.37,2013-01-09 01:00:00,
2013-01-08 17:15:00,51.9,49.6,30.08,NNW,335,0.0,3.0,92,0.00,CLR,SCT,0.28,WeatherDisplay:10.37,2013-01-09 01:15:00,
2013-01-08 17:30:00,51.6,49.7,30.07,NNE,30,0.0,3.0,93,0.00,CLR,SCT,0.28,WeatherDisplay:10.37,2013-01-09 01:30:00,
2013-01-08 17:45:00,51.4,49.7,30.07,NE,36,0.0,1.0,94,0.00,CLR,SCT,0.28,WeatherDisplay:10.37,2013-01-09 01:45:00,
2013-01-08 18:00:00,51.3,49.6,30.07,NE,36,0.0,1.0,94,0.00,CLR,SCT,0.28,WeatherDisplay:10.37,2013-01-09 02:00:00,
2013-01-08 18:15:00,51.3,49.6,30.07,SW,229,0.0,3.0,94,0.00,CLR,SCT,0.28,WeatherDisplay:10.37,2013-01-09 02:15:00,
2013-01-08 18:30:00,51.2,49.5,30.07,WSW,251,0.0,3.0,94,0.00,CLR,SCT,0.28,WeatherDisplay:10.37,2013-01-09 02:30:00,
2013-01-08 18:45:00,51.2,49.2,30.06,West,269,0.0,4.0,93,0.00,CLR,SCT,0.28,WeatherDisplay:10.37,2013-01-09 02:45:00,
2013-01-08 19:00:00,51.1,49.1,30.06,SW,215,0.0,6.0,93,0.00,CLR,SCT,0.28,WeatherDisplay:10.37,2013-01-09 03:00:00,
2013-01-08 19:15:00,51.1,49.2,30.05,SSW,202,0.0,7.0,93,0.00,CLR,SCT,0.28,WeatherDisplay:10.37,2013-01-09 03:15:00,
2013-01-08 19:30:00,51.4,49.2,30.05,NNW,342,1.0,12.0,92,0.00,CLR,SCT,0.28,WeatherDisplay:10.37,2013-01-09 03:30:00,
2013-01-08 19:45:00,51.4,49.1,30.04,WNW,292,1.0,6.0,92,0.00,CLR,SCT,0.28,WeatherDisplay:10.37,2013-01-09 03:45:00,
2013-01-08 20:00:00,51.3,49.1,30.04,ENE,57,1.0,6.0,92,0.00,CLR,SCT,0.28,WeatherDisplay:10.37,2013-01-09 04:00:00,
2013-01-08 20:30:00,51.5,49.0,30.04,ENE,58,1.0,3.0,91,0.00,CLR,SCT,0.28,WeatherDisplay:10.37,2013-01-09 04:30:00,
2013-01-08 20:45:00,51.5,49.0,30.04,ENE,58,1.0,0.0,91,0.00,CLR,SCT,0.28,WeatherDisplay:10.37,2013-01-09 04:45:00,
2013-01-08 21:15:00,51.5,49.0,30.04,ENE,58,1.0,0.0,91,0.00,CLR,SCT,0.28,WeatherDisplay:10.37,2013-01-09 05:15:00,
2013-01-08 21:30:00,51.5,49.0,30.04,ENE,58,1.0,0.0,91,0.00,CLR,SCT,0.28,WeatherDisplay:10.37,2013-01-09 05:30:00,
2013-01-08 21:45:00,51.5,49.0,30.04,ENE,58,1.0,0.0,91,0.00,CLR,SCT,0.28,WeatherDisplay:10.37,2013-01-09 05:45:00,
2013-01-08 22:00:00,51.5,49.0,30.04,ENE,58,1.0,0.0,91,0.00,CLR,SCT,0.28,WeatherDisplay:10.37,2013-01-09 06:00:00,
2013-01-08 22:15:00,51.5,49.0,30.04,ENE,58,1.0,0.0,91,0.00,CLR,SCT,0.28,WeatherDisplay:10.37,2013-01-09 06:15:00,
2013-01-08 22:30:00,51.5,49.0,30.04,ENE,58,1.0,0.0,91,0.00,CLR,SCT,0.28,WeatherDisplay:10.37,2013-01-09 06:30:00,
2013-01-08 22:45:00,51.5,49.0,30.04,ENE,58,1.0,0.0,91,0.00,CLR,SCT,0.28,WeatherDisplay:10.37,2013-01-09 06:45:00,
2013-01-08 23:00:00,51.5,49.0,30.04,ENE,58,1.0,0.0,91,0.00,CLR,SCT,0.28,WeatherDisplay:10.37,2013-01-09 07:00:00,
2013-01-08 23:15:00,51.5,49.0,30.04,ENE,58,1.0,0.0,91,0.00,CLR,SCT,0.28,WeatherDisplay:10.37,2013-01-09 07:15:00,
2013-01-08 23:30:00,51.5,49.0,30.04,ENE,58,1.0,0.0,91,0.00,CLR,SCT,0.28,WeatherDisplay:10.37,2013-01-09 07:30:00,
2013-01-08 23:45:00,51.5,49.0,30.04,ENE,58,1.0,0.0,91,0.00,CLR,SCT,0.28,WeatherDisplay:10.37,2013-01-09 07:45:00,